�������l�o���
Date,Time,MP-1(��Sv/h),MP-2(��Sv/h),MP-3(��Sv/h),MP-4(��Sv/h),MP-5(��Sv/h),MP-6(��Sv/h),MP-7(��Sv/h),MP-8(��Sv/h),����,����(m/s),���J
2022/05/14,00:00,0.551,0.811,0.531,0.996,0.701,0.342,0.582,0.551,�k,2.0,�L
2022/05/14,00:10,0.549,0.808,0.531,0.991,0.700,0.342,0.583,0.551,�k�k��,2.2,�L
2022/05/14,00:20,0.549,0.806,0.529,0.992,0.699,0.342,0.581,0.552,�k�k��,2.0,�L
2022/05/14,00:30,0.548,0.808,0.529,0.992,0.697,0.343,0.581,0.549,-,CALM,�L
2022/05/14,00:40,0.550,0.807,0.531,0.990,0.698,0.342,0.582,0.549,��,0.8,�L
2022/05/14,00:50,0.548,0.807,0.529,0.993,0.698,0.341,0.581,0.551,�쓌,0.6,�L
2022/05/14,01:00,0.552,0.808,0.531,0.995,0.700,0.343,0.583,0.551,-,CALM,�L
2022/05/14,01:10,0.550,0.808,0.532,0.993,0.698,0.343,0.582,0.552,-,CALM,�L
2022/05/14,01:20,0.550,0.810,0.531,0.993,0.699,0.341,0.582,0.551,-,CALM,�L
2022/05/14,01:30,0.550,0.809,0.531,0.993,0.700,0.341,0.582,0.552,-,CALM,�L
2022/05/14,01:40,0.551,0.811,0.532,0.992,0.698,0.342,0.582,0.552,��쓌,1.5,��
2022/05/14,01:50,0.550,0.812,0.531,0.995,0.700,0.341,0.582,0.553,��,1.2,�L
2022/05/14,02:00,0.551,0.812,0.530,0.994,0.700,0.342,0.583,0.551,��쓌,1.5,�L
2022/05/14,02:10,0.550,0.815,0.531,0.994,0.701,0.343,0.583,0.553,��쓌,2.0,�L
2022/05/14,02:20,0.553,0.815,0.531,0.995,0.701,0.342,0.582,0.553,��쓌,3.2,�L
2022/05/14,02:30,0.551,0.812,0.530,0.996,0.699,0.341,0.581,0.554,��쓌,2.6,�L
2022/05/14,02:40,0.553,0.813,0.529,0.997,0.700,0.342,0.583,0.553,��쓌,2.0,��
2022/05/14,02:50,0.552,0.815,0.529,0.996,0.700,0.342,0.583,0.553,��쓌,3.4,��
2022/05/14,03:00,0.551,0.815,0.528,0.994,0.701,0.341,0.583,0.554,��쓌,4.4,�L
2022/05/14,03:10,0.552,0.815,0.530,0.996,0.700,0.342,0.584,0.554,��,3.1,�L
2022/05/14,03:20,0.552,0.816,0.530,0.996,0.702,0.342,0.583,0.553,��쐼,2.0,�L
2022/05/14,03:30,0.552,0.814,0.530,0.993,0.703,0.343,0.585,0.554,��쐼,0.9,�L
2022/05/14,03:40,0.554,0.816,0.529,0.995,0.702,0.342,0.583,0.555,��쓌,2.5,�L
2022/05/14,03:50,0.551,0.816,0.531,0.998,0.703,0.341,0.584,0.555,��,2.8,�L
2022/05/14,04:00,0.553,0.813,0.531,0.996,0.705,0.341,0.583,0.555,���쐼,1.2,�L
2022/05/14,04:10,0.553,0.817,0.529,0.996,0.705,0.342,0.583,0.555,���쐼,1.7,�L
2022/05/14,04:20,0.552,0.812,0.530,0.995,0.703,0.342,0.583,0.556,���쐼,1.5,�L
2022/05/14,04:30,0.553,0.816,0.530,0.997,0.702,0.341,0.585,0.555,�k�k��,1.1,�L
2022/05/14,04:40,0.551,0.814,0.528,0.995,0.702,0.343,0.582,0.552,�k,1.5,�L
2022/05/14,04:50,0.549,0.815,0.529,0.997,0.701,0.342,0.583,0.553,�k�k��,0.6,�L
2022/05/14,05:00,0.550,0.813,0.530,0.995,0.700,0.341,0.583,0.552,�쓌,0.9,�L
2022/05/14,05:10,0.552,0.815,0.529,0.996,0.701,0.342,0.583,0.553,��,3.0,�L
2022/05/14,05:20,0.550,0.814,0.530,0.997,0.699,0.342,0.583,0.555,��,3.4,�L
2022/05/14,05:30,0.551,0.814,0.528,0.994,0.702,0.343,0.581,0.552,��,3.5,�L
2022/05/14,05:40,0.551,0.812,0.530,0.992,0.699,0.343,0.581,0.554,��,3.9,�L
2022/05/14,05:50,0.551,0.812,0.530,0.994,0.699,0.342,0.582,0.554,��,4.0,�L
2022/05/14,06:00,0.551,0.812,0.528,0.992,0.700,0.341,0.581,0.553,��쐼,4.4,�L
2022/05/14,06:10,0.548,0.806,0.527,0.992,0.695,0.341,0.580,0.550,��,6.2,�L
2022/05/14,06:20,0.547,0.805,0.528,0.986,0.693,0.341,0.578,0.550,��,6.6,�L
2022/05/14,06:30,0.545,0.802,0.527,0.983,0.694,0.341,0.580,0.548,��,6.1,�L
2022/05/14,06:40,0.545,0.801,0.528,0.982,0.691,0.342,0.578,0.549,��,5.0,�L
2022/05/14,06:50,0.547,0.800,0.527,0.981,0.689,0.343,0.580,0.549,��쓌,6.9,�L
2022/05/14,07:00,0.548,0.802,0.528,0.979,0.689,0.342,0.578,0.548,��쓌,8.2,�L
2022/05/14,07:10,0.547,0.804,0.527,0.982,0.691,0.341,0.579,0.549,��,9.5,�L
2022/05/14,07:20,0.547,0.802,0.527,0.984,0.691,0.342,0.580,0.550,��,8.5,�L
2022/05/14,07:30,0.549,0.804,0.526,0.982,0.691,0.342,0.579,0.552,��,7.5,�L
2022/05/14,07:40,0.547,0.803,0.525,0.982,0.691,0.341,0.579,0.550,��,9.1,�L
2022/05/14,07:50,0.548,0.804,0.527,0.986,0.691,0.340,0.581,0.551,��,9.2,�L
2022/05/14,08:00,0.547,0.805,0.528,0.986,0.693,0.342,0.578,0.550,��,9.3,�L
2022/05/14,08:10,0.550,0.806,0.529,0.986,0.694,0.340,0.580,0.550,��,9.4,�L
2022/05/14,08:20,0.549,0.805,0.530,0.985,0.692,0.341,0.581,0.551,��쐼,5.9,��
2022/05/14,08:30,0.549,0.808,0.529,0.986,0.694,0.342,0.581,0.549,��쐼,7.3,��
2022/05/14,08:40,0.550,0.808,0.530,0.986,0.694,0.341,0.582,0.551,��,5.9,��
2022/05/14,08:50,0.550,0.811,0.528,0.987,0.695,0.341,0.582,0.552,��쐼,4.0,��
2022/05/14,09:00,0.550,0.809,0.529,0.989,0.694,0.342,0.583,0.552,��,4.3,��
2022/05/14,09:10,0.551,0.809,0.528,0.989,0.696,0.342,0.582,0.551,��,5.1,��
2022/05/14,09:20,0.552,0.808,0.527,0.987,0.698,0.343,0.584,0.550,��쐼,5.1,��
2022/05/14,09:30,0.550,0.808,0.527,0.987,0.697,0.341,0.582,0.551,��쐼,5.6,��
2022/05/14,09:40,0.551,0.809,0.528,0.987,0.698,0.341,0.584,0.553,��,4.8,��
2022/05/14,09:50,0.552,0.810,0.527,0.989,0.698,0.342,0.583,0.551,��,5.3,��
2022/05/14,10:00,0.552,0.811,0.529,0.988,0.699,0.341,0.585,0.552,��,5.4,��
2022/05/14,10:10,0.553,0.813,0.527,0.988,0.700,0.343,0.584,0.552,��,5.0,��
2022/05/14,10:20,0.550,0.811,0.528,0.988,0.700,0.341,0.586,0.553,��,5.7,��
2022/05/14,10:30,0.553,0.813,0.530,0.989,0.698,0.342,0.586,0.553,��,5.8,��
2022/05/14,10:40,0.553,0.812,0.528,0.992,0.700,0.340,0.586,0.554,��,5.2,��
2022/05/14,10:50,0.553,0.814,0.529,0.992,0.701,0.341,0.586,0.552,��,3.8,��
2022/05/14,11:00,0.553,0.815,0.529,0.990,0.701,0.341,0.585,0.554,��쐼,3.6,��
2022/05/14,11:10,0.554,0.815,0.529,0.991,0.701,0.342,0.586,0.553,�쐼,3.4,��
2022/05/14,11:20,0.554,0.813,0.531,0.992,0.701,0.342,0.586,0.554,��쐼,2.6,��
2022/05/14,11:30,0.554,0.813,0.530,0.994,0.701,0.342,0.587,0.552,��쐼,1.4,��
2022/05/14,11:40,0.554,0.814,0.531,0.993,0.702,0.342,0.585,0.555,��,1.4,��
2022/05/14,11:50,0.554,0.816,0.530,0.992,0.702,0.341,0.587,0.553,��쐼,1.2,��
2022/05/14,12:00,0.556,0.815,0.531,0.993,0.702,0.342,0.586,0.554,��,2.3,��
2022/05/14,12:10,0.556,0.817,0.530,0.993,0.702,0.343,0.587,0.554,��,4.7,��
2022/05/14,12:20,0.556,0.815,0.532,0.994,0.705,0.343,0.586,0.553,���k��,3.1,��
2022/05/14,12:30,0.556,0.817,0.531,0.995,0.703,0.344,0.586,0.553,�k��,3.1,��
2022/05/14,12:40,0.557,0.818,0.532,0.994,0.703,0.343,0.589,0.555,�k��,3.0,��
2022/05/14,12:50,0.558,0.818,0.533,0.995,0.704,0.344,0.589,0.554,�k��,2.9,��
2022/05/14,13:00,0.557,0.817,0.533,0.994,0.705,0.343,0.589,0.556,�k��,1.5,��
2022/05/14,13:10,0.557,0.820,0.534,0.994,0.703,0.344,0.589,0.556,��쐼,0.6,��
2022/05/14,13:20,0.558,0.821,0.534,0.994,0.705,0.342,0.587,0.555,���k��,3.9,��
2022/05/14,13:30,0.557,0.821,0.535,0.996,0.708,0.345,0.589,0.555,���k��,5.3,��
2022/05/14,13:40,0.559,0.822,0.536,0.998,0.709,0.343,0.588,0.555,���k��,5.7,��
2022/05/14,13:50,0.558,0.821,0.536,0.995,0.708,0.344,0.588,0.556,���k��,3.6,��
2022/05/14,14:00,0.557,0.822,0.534,0.997,0.708,0.344,0.590,0.555,���k��,7.9,��
2022/05/14,14:10,0.558,0.821,0.536,0.998,0.709,0.343,0.589,0.555,���k��,5.7,��
2022/05/14,14:20,0.559,0.823,0.535,0.999,0.709,0.344,0.589,0.555,���k��,5.3,��
2022/05/14,14:30,0.558,0.821,0.536,0.999,0.710,0.343,0.590,0.557,�k��,10.4,��
2022/05/14,14:40,0.560,0.822,0.536,0.999,0.709,0.345,0.589,0.558,�k��,10.5,��
2022/05/14,14:50,0.559,0.824,0.534,0.999,0.708,0.344,0.590,0.556,�k��,9.7,��
2022/05/14,15:00,0.558,0.825,0.536,0.999,0.709,0.344,0.589,0.557,�k��,11.3,��
2022/05/14,15:10,0.560,0.826,0.535,1.001,0.710,0.344,0.591,0.557,�k��,8.9,��
2022/05/14,15:20,0.559,0.825,0.536,1.002,0.709,0.344,0.590,0.556,�k��,9.2,��
2022/05/14,15:30,0.559,0.823,0.537,1.004,0.710,0.344,0.590,0.558,�k��,6.3,��
2022/05/14,15:40,0.561,0.825,0.536,1.003,0.711,0.343,0.590,0.556,���k��,7.5,��
2022/05/14,15:50,0.561,0.825,0.536,1.003,0.713,0.342,0.590,0.557,���k��,11.6,��
2022/05/14,16:00,0.559,0.825,0.536,1.004,0.712,0.345,0.591,0.557,���k��,7.3,��
2022/05/14,16:10,0.558,0.826,0.537,1.005,0.712,0.345,0.591,0.556,���k��,5.4,��
2022/05/14,16:20,0.560,0.825,0.537,1.005,0.711,0.344,0.591,0.557,���k��,6.8,��
2022/05/14,16:30,0.561,0.826,0.538,1.005,0.711,0.344,0.590,0.558,���k��,4.8,��
2022/05/14,16:40,0.561,0.824,0.536,1.006,0.710,0.344,0.590,0.557,���k��,4.9,��
2022/05/14,16:50,0.558,0.826,0.538,1.005,0.711,0.344,0.590,0.557,���k��,7.1,��
2022/05/14,17:00,0.560,0.825,0.537,1.005,0.712,0.342,0.591,0.556,���k��,7.2,��
2022/05/14,17:10,0.561,0.825,0.537,1.007,0.712,0.343,0.589,0.556,���k��,5.8,��
2022/05/14,17:20,0.560,0.827,0.537,1.006,0.714,0.343,0.591,0.558,���k��,6.5,��
2022/05/14,17:30,0.560,0.828,0.537,1.005,0.711,0.344,0.591,0.557,���k��,4.6,��
2022/05/14,17:40,0.561,0.827,0.538,1.008,0.712,0.345,0.589,0.557,���k��,4.7,��
2022/05/14,17:50,0.559,0.828,0.538,1.006,0.713,0.342,0.590,0.558,���k��,9.0,��
2022/05/14,18:00,0.561,0.829,0.537,1.006,0.713,0.341,0.590,0.561,���k��,9.3,��
2022/05/14,18:10,0.561,0.832,0.537,1.007,0.711,0.343,0.590,0.558,�k��,10.3,��
2022/05/14,18:20,0.559,0.828,0.538,1.008,0.711,0.343,0.589,0.558,���k��,8.3,��
2022/05/14,18:30,0.559,0.832,0.538,1.010,0.714,0.343,0.589,0.559,���k��,10.6,��
2022/05/14,18:40,0.561,0.832,0.536,1.008,0.714,0.342,0.590,0.558,���k��,11.8,��
2022/05/14,18:50,0.561,0.829,0.538,1.010,0.713,0.342,0.589,0.557,���k��,9.3,��
2022/05/14,19:00,0.559,0.831,0.537,1.010,0.711,0.342,0.590,0.558,���k��,9.1,��
2022/05/14,19:10,0.560,0.832,0.536,1.012,0.714,0.343,0.589,0.558,���k��,11.0,��
2022/05/14,19:20,0.561,0.831,0.535,1.012,0.714,0.341,0.591,0.557,���k��,8.8,��
2022/05/14,19:30,0.563,0.832,0.537,1.012,0.714,0.343,0.591,0.557,�k��,8.9,��
2022/05/14,19:40,0.560,0.831,0.536,1.015,0.713,0.343,0.591,0.558,�k��,8.7,��
2022/05/14,19:50,0.561,0.832,0.536,1.013,0.712,0.343,0.589,0.559,�k��,9.1,��
2022/05/14,20:00,0.561,0.831,0.537,1.010,0.714,0.345,0.589,0.558,�k��,7.2,��
2022/05/14,20:10,0.561,0.834,0.538,1.016,0.713,0.344,0.589,0.560,�k��,7.8,��
2022/05/14,20:20,0.561,0.830,0.537,1.014,0.716,0.344,0.591,0.559,�k��,8.6,��
2022/05/14,20:30,0.561,0.832,0.538,1.015,0.715,0.344,0.590,0.559,�k��,6.0,��
2022/05/14,20:40,0.564,0.832,0.537,1.014,0.713,0.342,0.592,0.560,�k��,7.6,��
2022/05/14,20:50,0.562,0.830,0.539,1.015,0.713,0.343,0.589,0.559,�k��,7.5,��
2022/05/14,21:00,0.562,0.833,0.538,1.015,0.715,0.343,0.589,0.557,�k��,7.8,��
2022/05/14,21:10,0.562,0.831,0.536,1.014,0.714,0.344,0.589,0.559,�k��,6.9,��
2022/05/14,21:20,0.561,0.832,0.539,1.014,0.714,0.341,0.590,0.560,�k�k��,4.6,��
2022/05/14,21:30,0.563,0.834,0.540,1.015,0.714,0.343,0.590,0.560,�k��,6.1,��
2022/05/14,21:40,0.563,0.830,0.538,1.015,0.714,0.344,0.590,0.559,�k��,6.3,��
2022/05/14,21:50,0.562,0.832,0.539,1.016,0.712,0.343,0.589,0.560,�k��,4.0,��
2022/05/14,22:00,0.561,0.833,0.540,1.015,0.713,0.343,0.591,0.559,�k�k��,2.6,��
2022/05/14,22:10,0.563,0.834,0.539,1.013,0.715,0.344,0.591,0.561,�k�k��,5.2,��
2022/05/14,22:20,0.561,0.833,0.539,1.015,0.713,0.344,0.589,0.560,�k�k��,6.4,��
2022/05/14,22:30,0.562,0.833,0.538,1.014,0.713,0.343,0.590,0.560,�k,3.4,��
2022/05/14,22:40,0.562,0.832,0.540,1.015,0.714,0.344,0.590,0.560,�k�k��,2.6,��
2022/05/14,22:50,0.561,0.834,0.539,1.014,0.716,0.343,0.591,0.558,�k,3.9,��
2022/05/14,23:00,0.562,0.832,0.539,1.014,0.716,0.343,0.589,0.559,�k�k��,4.0,��
2022/05/14,23:10,0.563,0.831,0.539,1.016,0.714,0.343,0.589,0.559,�k,4.8,��
2022/05/14,23:20,0.561,0.832,0.539,1.015,0.715,0.345,0.589,0.560,�k�k��,5.2,�L
2022/05/14,23:30,0.562,0.832,0.540,1.014,0.715,0.344,0.590,0.560,�k�k��,4.8,�L
2022/05/14,23:40,0.562,0.832,0.539,1.016,0.716,0.344,0.590,0.559,�k�k��,4.9,�L
2022/05/14,23:50,0.562,0.833,0.539,1.015,0.715,0.343,0.590,0.561,�k�k��,5.3,�L
